Printer-friendly version

IAU Minor Planet Center

Minor Planet Center

MPEC 2006-Y03 : 2000 AG205

The following Minor Planet Electronic Circular may be linked-to from your own Web pages, but must not otherwise be redistributed electronically.


Read MPEC 2006-Y02 Read MPEC 2006-Y04


M.P.E.C. 2006-Y03                                Issued 2006 Dec. 16, 12:27 UT

     The Minor Planet Electronic Circulars contain information on unusual
         minor planets and routine data on comets.  They are published
   on behalf of Commission 20 of the International Astronomical Union by the
          Minor Planet Center, Smithsonian Astrophysical Observatory,
                          Cambridge, MA 02138, U.S.A.

             Prepared using the Tamkin Foundation Computer Network

                              MPC@CFA.HARVARD.EDU
          URL http://cfa-www.harvard.edu/iau/mpc.html  ISSN 1523-6714

                                  2000 AG205

                           Revision to MPEC 2000-B05

Additional Observations:
     K00AK5G  C2006 12 11.29917 06 26 22.95 +28 32 09.7          19.8 V EY003691
     K00AK5G  C2006 12 11.31657 06 26 21.94 +28 31 40.2          20.3 V EY003691
     K00AK5G  C2006 12 11.33397 06 26 21.00 +28 31 11.3          19.6 V EY003691
     K00AK5G  C2006 12 16.33988 06 21 31.42 +25 55 47.3          18.7 V EY003G96
     K00AK5G  C2006 12 16.34185 06 21 31.28 +25 55 43.2          18.9 V EY003G96
     K00AK5G  C2006 12 16.34377 06 21 31.14 +25 55 39.3          18.8 V EY003G96
     K00AK5G  C2006 12 16.34573 06 21 30.99 +25 55 35.2          18.7 V EY003G96

Observer details:
691 Steward Observatory, Kitt Peak.  Observer T. H. Bressi.  0.9-m f/3
    reflector + CCD.
G96 Mt. Lemmon Survey.  Observer E. J. Christensen.  Measurers E. C. Beshore,
    E. J. Christensen, G. J. Garradd, A. R. Gibbs, A. D. Grauer, R. E. Hill,
    R. A. Kowalski, S. M. Larson, R. H. McNaught.  1.5-m reflector + CCD.

First and last observations above in comparison with prediction:
Residuals in seconds of arc (or two decimals in degrees), reference and Delta-T
061211 691 0.40- 0.14+    061216 G96 0.44- 0.16+    MPC 39582   +0.23 day

Orbital elements:
2000 AG205                                               Earth MOID = 0.2687 AU
Epoch 2007 Apr. 10.0 TT = JDT 2454200.5                 MPC
M   9.14406              (2000.0)            P               Q
n   0.28387622     Peri.  249.04305     -0.88603401     -0.33932779
a   2.2928908      Node   270.00135     +0.44548330     -0.81185214
e   0.5199646      Incl.   18.41588     -0.12840704     -0.47513446
P   3.47           H   19.8           G   0.15           U   3
Residuals in seconds of arc
000109 691  0.1-  0.1-    000126 691  0.3+  0.6-    000208 413  0.3+  0.6-
000109 691  0.3+  0.4-    000126 691  0.2+  0.5-    000228 693  0.2-  0.4+
000109 691  0.0   0.3-    000130 691  0.6-  0.9-    000228 693  0.6-  0.2-
000110 691  1.2+  1.3-    000130 691  0.2+  0.1-    000228 693  0.3-  0.1+
000110 691  0.3-  0.6-    000130 691  0.5+  0.9-    061211 691  0.0   0.4+
000110 691  0.2+  0.1-    000201 691  0.8-  0.2+    061211 691  0.4-  0.1-
000112 691  0.3-  0.2+    000201 691 (1.5+  2.3+)   061211 691  0.2+  0.2+
000112 691  0.0   0.6+    000201 691  0.7-  0.7+    061216 G96  0.2+  0.2-
000112 691  0.0   1.1+    000208 691  0.4+  0.3-    061216 G96  0.3+  0.3-
000114 691  0.9-  0.2+    000208 691  0.6-  1.1+    061216 G96  0.3+  0.3-
000114 691  0.2+  0.8+    000208 691  0.9+  0.7+    061216 G96  0.2+  0.4-
000114 691  0.5-  1.3+    000208 413  0.2+  0.8-
000126 691  0.2+  0.3-    000208 413  1.2+  0.9-

Ephemeris:
2000 AG205               a,e,i = 2.29, 0.52, 18                  q = 1.1007
Date    TT    R. A. (2000) Decl.     Delta      r     Elong.  Phase     V
2006 12 11    06 26.62   +28 40.5    0.505    1.473   162.0    11.9    19.9
2006 12 21    06 15.92   +23 02.8    0.424    1.407   175.2     3.4    19.0
2006 12 31    06 01.44   +15 15.1    0.367    1.344   168.1     8.7    18.9
2007 01 10    05 46.32   +05 40.7    0.333    1.286   151.4    21.5    19.0
2007 01 20    05 34.07   -04 25.8    0.320    1.232   135.2    34.2    19.2
2007 01 30    05 27.50   -13 43.8    0.324    1.186   121.3    45.2    19.4
2007 02 09    05 27.69   -21 37.5    0.335    1.148   110.6    53.6    19.7
2007 02 19    05 34.73   -28 08.5    0.350    1.120   103.0    59.3    19.9
2007 03 01    05 48.58   -33 34.0    0.364    1.105    98.5    62.5    20.0
2007 03 11    06 09.27   -38 09.0    0.375    1.101    96.6    63.7    20.1
2007 03 21    06 37.55   -41 57.0    0.383    1.110    97.0    62.9    20.2
2007 03 31    07 14.65   -44 53.8    0.391    1.131    99.6    60.5    20.2
2007 04 10    08 01.09   -46 42.3    0.398    1.164   103.9    56.7    20.2
2007 04 20    08 55.52   -46 57.1    0.411    1.205   109.4    51.8    20.2
2007 04 30    09 53.46   -45 24.0    0.433    1.255   115.4    46.5    20.2
2007 05 10    10 48.78   -42 15.7    0.468    1.311   120.6    41.5    20.4
2007 05 20    11 37.40   -38 12.8    0.520    1.372   123.9    37.8    20.6
2007 05 30    12 18.49   -34 04.1    0.592    1.436   124.8    35.4    20.9
2007 06 09    12 52.99   -30 22.5    0.681    1.503   123.5    34.3    21.3
2007 06 19    13 22.50   -27 21.7    0.788    1.571   120.6    33.8    21.7

Kyle E. Smalley              (C) Copyright 2006 MPC           M.P.E.C. 2006-Y03

Read MPEC 2006-Y02 Read MPEC 2006-Y04


Our Web policy. Index to the CBAT/MPC/ICQ pages.


Valid HTML 4.01!